Location: Home
(42.5358°N, 72.7383°W)
Time: 19:37:51
(UTC-05:00)

Courier 1B Rocket - Visible Passes

Search period start: 29 November 2021 00:00
Search period end: 09 December 2021 00:00
Orbit: 920 x 1202 km, 28.2° (Epoch: 29 November)

Date Brightness Start Highest point End Pass type
(mag) Time Alt. Az. Time Alt. Az. Time Alt. Az.
29 Nov 7.6 02:58:42 10° SE 02:58:42 10° SE 02:58:49 10° SE visible
29 Nov 6.8 04:45:04 14° SSW 04:46:25 15° SSW 04:50:05 10° SSE visible
30 Nov 7.1 03:47:54 15° SSE 03:47:54 15° SSE 03:49:54 10° SSE visible
01 Dec 7.1 04:37:08 11° SSW 04:37:18 11° SSW 04:38:59 10° S visible
